• In Uzbekistan
  • List of Countries
  • For 7 days
  • Water Temperature
  • Satellite Maps
  • Weather Map
  • Weather Widgets
  • user-avatar
    Login

    Hourly Weather Smolnik

    Today, 19 July, Thursday

    Time Temperature Precipitation Wind Pressure Humidity
    00:00 +18°C° 0 mm 1 mps 705 mmHg 98%
    01:00 +17°C° 0 mm 2 mps 706 mmHg 98%
    02:00 +18°C° 0 mm 1 mps 705 mmHg 98%
    03:00 +17°C° 0.1 mm 2 mps 706 mmHg 98%
    04:00 +18°C° 0.1 mm 2 mps 706 mmHg 98%
    05:00 +18°C° 0.1 mm 2 mps 706 mmHg 98%
    06:00 +18°C° 0.1 mm 2 mps 706 mmHg 97%
    07:00 +18°C° 0.1 mm 3 mps 707 mmHg 96%
    08:00 +19°C° 0.1 mm 3 mps 707 mmHg 95%
    09:00 +19°C° 0.1 mm 3 mps 707 mmHg 94%
    10:00 +19°C° 0.1 mm 3 mps 707 mmHg 93%
    11:00 +19°C° 0.1 mm 3 mps 708 mmHg 92%
    12:00 +20°C° 0.1 mm 3 mps 708 mmHg 91%
    13:00 +20°C° 0.1 mm 4 mps 708 mmHg 89%
    14:00 +20°C° 0.1 mm 4 mps 708 mmHg 88%
    15:00 +20°C° 0.1 mm 4 mps 708 mmHg 87%
    16:00 +20°C° 0.1 mm 4 mps 708 mmHg 86%
    17:00 +20°C° 0.1 mm 4 mps 708 mmHg 86%
    18:00 +20°C° 0.1 mm 3 mps 708 mmHg 88%
    19:00 +19°C° 0.1 mm 3 mps 708 mmHg 90%
    20:00 +19°C° 0.1 mm 3 mps 708 mmHg 93%
    21:00 +18°C° 0.1 mm 3 mps 708 mmHg 94%
    22:00 +18°C° 0.1 mm 3 mps 708 mmHg 95%
    23:00 +17°C° 0.1 mm 2 mps 708 mmHg 96%

    Tomorrow, 20 July, Friday

    Time Temperature Precipitation Wind Pressure Humidity
    00:00 +17°C° 0 mm 2 mps 708 mmHg 97%
    01:00 +17°C° 0 mm 2 mps 708 mmHg 97%
    02:00 +17°C° 0 mm 2 mps 708 mmHg 97%
    03:00 +16°C° 0 mm 2 mps 708 mmHg 97%
    04:00 +16°C° 0 mm 2 mps 708 mmHg 97%
    05:00 +16°C° 0 mm 2 mps 708 mmHg 97%
    06:00 +17°C° 0.1 mm 2 mps 708 mmHg 95%
    07:00 +17°C° 0.1 mm 3 mps 709 mmHg 93%
    08:00 +18°C° 0.1 mm 3 mps 709 mmHg 91%
    09:00 +18°C° 0.2 mm 3 mps 709 mmHg 91%
    10:00 +18°C° 0.2 mm 3 mps 709 mmHg 90%
    11:00 +18°C° 0.2 mm 3 mps 709 mmHg 90%
    12:00 +19°C° 0.1 mm 3 mps 709 mmHg 88%
    13:00 +19°C° 0.1 mm 3 mps 709 mmHg 85%
    14:00 +20°C° 0.1 mm 3 mps 709 mmHg 83%
    15:00 +21°C° 0 mm 4 mps 709 mmHg 78%
    16:00 +21°C° 0 mm 4 mps 709 mmHg 73%
    17:00 +22°C° 0 mm 4 mps 709 mmHg 67%
    18:00 +21°C° 0 mm 3 mps 709 mmHg 74%
    19:00 +20°C° 0 mm 3 mps 709 mmHg 80%
    20:00 +19°C° 0 mm 2 mps 709 mmHg 86%
    21:00 +18°C° 0 mm 2 mps 709 mmHg 89%
    22:00 +17°C° 0 mm 2 mps 709 mmHg 91%
    23:00 +16°C° 0 mm 2 mps 709 mmHg 94%

    Day after tomorrow, 21 July, Saturday

    Time Temperature Precipitation Wind Pressure Humidity
    00:00 +15°C° 0 mm 1 mps 709 mmHg 95%
    01:00 +15°C° 0 mm 1 mps 709 mmHg 95%
    02:00 +15°C° 0 mm 1 mps 709 mmHg 96%
    03:00 +14°C° 0 mm 1 mps 709 mmHg 96%
    04:00 +14°C° 0 mm 1 mps 709 mmHg 96%
    05:00 +14°C° 0 mm 1 mps 709 mmHg 96%
    06:00 +15°C° 0 mm 1 mps 710 mmHg 91%
    07:00 +17°C° 0 mm 2 mps 710 mmHg 86%
    08:00 +19°C° 0 mm 2 mps 710 mmHg 81%
    09:00 +20°C° 0 mm 2 mps 711 mmHg 75%
    10:00 +23°C° 0 mm 2 mps 711 mmHg 68%
    11:00 +24°C° 0 mm 2 mps 711 mmHg 62%
    12:00 +25°C° 0.1 mm 2 mps 711 mmHg 59%
    13:00 +25°C° 0.1 mm 2 mps 711 mmHg 57%
    14:00 +26°C° 0.1 mm 2 mps 710 mmHg 55%
    15:00 +25°C° 0.1 mm 2 mps 710 mmHg 57%
    16:00 +25°C° 0.1 mm 2 mps 710 mmHg 59%
    17:00 +25°C° 0.1 mm 2 mps 710 mmHg 61%
    18:00 +23°C° 0.1 mm 2 mps 710 mmHg 69%
    19:00 +22°C° 0.1 mm 1 mps 710 mmHg 78%
    20:00 +20°C° 0.1 mm 1 mps 710 mmHg 86%
    21:00 +19°C° 0 mm 1 mps 709 mmHg 88%
    22:00 +18°C° 0 mm 1 mps 709 mmHg 90%
    23:00 +16°C° 0 mm 1 mps 709 mmHg 91%

    22 July, Sunday

    Time Temperature Precipitation Wind Pressure Humidity
    00:00 +16°C° 0 mm 1 mps 709 mmHg 92%
    01:00 +16°C° 0 mm 1 mps 709 mmHg 92%
    02:00 +15°C° 0 mm 1 mps 709 mmHg 92%
    03:00 +15°C° 0 mm 1 mps 709 mmHg 92%
    04:00 +15°C° 0 mm 1 mps 709 mmHg 92%
    05:00 +15°C° 0 mm 1 mps 709 mmHg 91%
    06:00 +16°C° 0 mm 0 mps 709 mmHg 87%
    07:00 +18°C° 0 mm 0 mps 709 mmHg 83%
    08:00 +19°C° 0 mm 0 mps 709 mmHg 78%
    09:00 +20°C° 0.6 mm 0 mps 709 mmHg 77%
    10:00 +23°C° 0.6 mm 1 mps 709 mmHg 75%
    11:00 +23°C° 0.6 mm 1 mps 709 mmHg 73%
    12:00 +24°C° 0.8 mm 1 mps 708 mmHg 73%
    13:00 +24°C° 0.8 mm 1 mps 708 mmHg 74%
    14:00 +24°C° 0.8 mm 1 mps 708 mmHg 75%
    15:00 +24°C° 0.7 mm 1 mps 708 mmHg 77%
    16:00 +24°C° 0.7 mm 1 mps 708 mmHg 78%
    17:00 +24°C° 0.7 mm 1 mps 707 mmHg 79%
    18:00 +22°C° 0.6 mm 1 mps 707 mmHg 83%
    19:00 +21°C° 0.6 mm 1 mps 707 mmHg 86%
    20:00 +20°C° 0.6 mm 1 mps 707 mmHg 89%
    21:00 +19°C° 0 mm 1 mps 707 mmHg 90%
    22:00 +18°C° 0 mm 1 mps 707 mmHg 91%
    23:00 +18°C° 0 mm 1 mps 707 mmHg 92%

    23 July, Monday

    Time Temperature Precipitation Wind Pressure Humidity
    00:00 +16°C° 0 mm 1 mps 707 mmHg 92%
    01:00 +16°C° 0 mm 1 mps 706 mmHg 92%
    02:00 +16°C° 0 mm 1 mps 706 mmHg 93%
    03:00 +15°C° 0 mm 1 mps 706 mmHg 93%
    04:00 +15°C° 0 mm 1 mps 706 mmHg 93%
    05:00 +15°C° 0 mm 2 mps 706 mmHg 92%
    06:00 +16°C° 0 mm 2 mps 707 mmHg 90%
    07:00 +17°C° 0 mm 2 mps 707 mmHg 88%
    08:00 +18°C° 0 mm 2 mps 707 mmHg 85%
    09:00 +19°C° 0.1 mm 3 mps 707 mmHg 81%
    10:00 +20°C° 0.1 mm 3 mps 707 mmHg 76%
    11:00 +21°C° 0.1 mm 3 mps 708 mmHg 71%
    12:00 +22°C° 0.2 mm 3 mps 708 mmHg 70%
    13:00 +23°C° 0.2 mm 4 mps 707 mmHg 68%
    14:00 +23°C° 0.2 mm 4 mps 707 mmHg 66%
    15:00 +23°C° 0.5 mm 4 mps 707 mmHg 72%
    16:00 +22°C° 0.5 mm 4 mps 707 mmHg 78%
    17:00 +21°C° 0.5 mm 4 mps 707 mmHg 84%
    18:00 +20°C° 0.4 mm 3 mps 708 mmHg 86%
    19:00 +19°C° 0.4 mm 3 mps 708 mmHg 88%
    20:00 +18°C° 0.4 mm 2 mps 708 mmHg 91%
    21:00 +18°C° 0.1 mm 2 mps 708 mmHg 91%
    22:00 +17°C° 0.1 mm 2 mps 708 mmHg 91%
    23:00 +17°C° 0.1 mm 2 mps 708 mmHg 92%

    24 July, Tuesday

    Time Temperature Precipitation Wind Pressure Humidity
    00:00 +16°C° 0 mm 2 mps 708 mmHg 92%
    01:00 +16°C° 0 mm 2 mps 708 mmHg 92%
    02:00 +15°C° 0 mm 2 mps 708 mmHg 93%
    03:00 +15°C° 0 mm 2 mps 709 mmHg 93%
    04:00 +15°C° 0 mm 2 mps 709 mmHg 93%
    05:00 +15°C° 0 mm 2 mps 709 mmHg 94%
    06:00 +16°C° 0 mm 2 mps 709 mmHg 92%
    07:00 +17°C° 0 mm 2 mps 710 mmHg 90%
    08:00 +18°C° 0 mm 2 mps 710 mmHg 88%
    09:00 +19°C° 0 mm 3 mps 710 mmHg 82%
    10:00 +20°C° 0 mm 3 mps 710 mmHg 76%
    11:00 +21°C° 0 mm 3 mps 710 mmHg 70%
    12:00 +22°C° 0.2 mm 3 mps 710 mmHg 68%
    13:00 +24°C° 0.2 mm 3 mps 710 mmHg 66%
    14:00 +24°C° 0.2 mm 3 mps 710 mmHg 64%
    15:00 +24°C° 0.3 mm 3 mps 710 mmHg 66%
    16:00 +24°C° 0.3 mm 3 mps 710 mmHg 67%
    17:00 +24°C° 0.3 mm 3 mps 710 mmHg 69%
    18:00 +21°C° 0.1 mm 2 mps 710 mmHg 76%
    19:00 +20°C° 0.1 mm 2 mps 710 mmHg 82%
    20:00 +19°C° 0.1 mm 1 mps 710 mmHg 88%
    21:00 +18°C° 0 mm 1 mps 710 mmHg 90%
    22:00 +16°C° 0 mm 1 mps 710 mmHg 91%
    23:00 +15°C° 0 mm 1 mps 710 mmHg 93%
    Show more